Data supplied by UK-AIR on 3/5/2024
All Data GMT hour ending 
Status: R =Ratified P=Provisional,P*=As supplied
,,Derry Rosemount,,,,,,,,,,,,,,,,,,,,,,,
Date,time,"PM<sub>10</sub> particulate matter (Hourly measured)",status,unit,"Nitric oxide",status,unit,"Nitrogen dioxide",status,unit,"Nitrogen oxides as nitrogen dioxide",status,unit,"Ozone",status,unit,"PM<sub>2.5</sub> particulate matter (Hourly measured)",status,unit,"Sulphur dioxide",status,unit
 
01-01-2024,01:00,10.725,P,ugm-3 (Ref.eq),0.35054,P,ugm-3,1.54812,P,ugm-3,2.08561,P,ugm-3,64.52763,P,ugm-3,3.000,P,ugm-3 (BAM),1.06757,P,ugm-3
01-01-2024,02:00,12.657,P,ugm-3 (Ref.eq),0.52582,P,ugm-3,8.41082,P,ugm-3,9.21706,P,ugm-3,51.48906,P,ugm-3,9.000,P,ugm-3 (BAM),5.17363,P,ugm-3
01-01-2024,03:00,16.522,P,ugm-3 (Ref.eq),0.55868,P,ugm-3,6.30846,P,ugm-3,7.16508,P,ugm-3,52.88605,P,ugm-3,6.000,P,ugm-3 (BAM),4.98886,P,ugm-3
01-01-2024,04:00,10.725,P,ugm-3 (Ref.eq),0.39436,P,ugm-3,2.42282,P,ugm-3,3.02750,P,ugm-3,62.76477,P,ugm-3,2.000,P,ugm-3 (BAM),3.75704,P,ugm-3
01-01-2024,05:00,6.860,P,ugm-3 (Ref.eq),0.26291,P,ugm-3,1.31247,P,ugm-3,1.71558,P,ugm-3,66.70627,P,ugm-3,2.000,P,ugm-3 (BAM),1.78613,P,ugm-3
01-01-2024,06:00,4.928,P,ugm-3 (Ref.eq),0.19718,P,ugm-3,1.16095,P,ugm-3,1.46329,P,ugm-3,68.00348,P,ugm-3,3.000,P,ugm-3 (BAM),1.41659,P,ugm-3
01-01-2024,07:00,5.894,P,ugm-3 (Ref.eq),0.19718,P,ugm-3,1.31233,P,ugm-3,1.61467,P,ugm-3,70.24864,P,ugm-3,5.000,P,ugm-3 (BAM),0.67750,P,ugm-3
01-01-2024,08:00,3.961,P,ugm-3 (Ref.eq),0.36150,P,ugm-3,2.57413,P,ugm-3,3.12842,P,ugm-3,65.65853,P,ugm-3,5.000,P,ugm-3 (BAM),0.49273,P,ugm-3
01-01-2024,09:00,2.029,P,ugm-3 (Ref.eq),0.29577,P,ugm-3,3.28041,P,ugm-3,3.73392,P,ugm-3,65.85810,P,ugm-3,5.000,P,ugm-3 (BAM),0.30795,P,ugm-3
01-01-2024,10:00,2.029,P,ugm-3 (Ref.eq),0.42723,P,ugm-3,4.54214,P,ugm-3,5.19721,P,ugm-3,63.01423,P,ugm-3,6.000,P,ugm-3 (BAM),2.15568,P,ugm-3
01-01-2024,11:00,8.792,P,ugm-3 (Ref.eq),0.65727,P,ugm-3,5.45087,P,ugm-3,6.45867,P,ugm-3,61.06842,P,ugm-3,5.000,P,ugm-3 (BAM),3.32591,P,ugm-3
01-01-2024,12:00,11.691,P,ugm-3 (Ref.eq),0.92018,P,ugm-3,6.05692,P,ugm-3,7.46783,P,ugm-3,59.07272,P,ugm-3,2.000,P,ugm-3 (BAM),3.20273,P,ugm-3
01-01-2024,13:00,12.657,P,ugm-3 (Ref.eq),0.92018,P,ugm-3,8.27708,P,ugm-3,9.68800,P,ugm-3,58.12476,P,ugm-3,5.000,P,ugm-3 (BAM),3.32591,P,ugm-3
01-01-2024,14:00,15.556,P,ugm-3 (Ref.eq),2.00467,P,ugm-3,14.99030,P,ugm-3,18.06409,P,ugm-3,51.88820,P,ugm-3,6.000,P,ugm-3 (BAM),3.57227,P,ugm-3
01-01-2024,15:00,11.691,P,ugm-3 (Ref.eq),1.84035,P,ugm-3,11.50833,P,ugm-3,14.33017,P,ugm-3,55.08132,P,ugm-3,7.000,P,ugm-3 (BAM),3.26432,P,ugm-3
01-01-2024,16:00,17.488,P,ugm-3 (Ref.eq),1.31454,P,ugm-3,13.57603,P,ugm-3,15.59163,P,ugm-3,52.68648,P,ugm-3,7.000,P,ugm-3 (BAM),3.07955,P,ugm-3
01-01-2024,17:00,20.387,P,ugm-3 (Ref.eq),2.89198,P,ugm-3,12.51969,P,ugm-3,16.95400,P,ugm-3,57.37638,P,ugm-3,16.000,P,ugm-3 (BAM),4.92727,P,ugm-3
01-01-2024,18:00,9.759,P,ugm-3 (Ref.eq),1.70890,P,ugm-3,9.13652,P,ugm-3,11.75679,P,ugm-3,62.26584,P,ugm-3,7.000,P,ugm-3 (BAM),5.05045,P,ugm-3
01-01-2024,19:00,11.691,P,ugm-3 (Ref.eq),1.74176,P,ugm-3,7.77421,P,ugm-3,10.44488,P,ugm-3,65.30928,P,ugm-3,7.000,P,ugm-3 (BAM),5.35841,P,ugm-3
01-01-2024,20:00,16.522,P,ugm-3 (Ref.eq),1.15022,P,ugm-3,6.66290,P,ugm-3,8.42654,P,ugm-3,66.85595,P,ugm-3,8.000,P,ugm-3 (BAM),4.55773,P,ugm-3
01-01-2024,21:00,9.759,P,ugm-3 (Ref.eq),1.28167,P,ugm-3,6.25950,P,ugm-3,8.22471,P,ugm-3,65.70842,P,ugm-3,5.000,P,ugm-3 (BAM),5.11204,P,ugm-3
01-01-2024,22:00,12.657,P,ugm-3 (Ref.eq),1.54458,P,ugm-3,7.37013,P,ugm-3,9.73846,P,ugm-3,60.81896,P,ugm-3,6.000,P,ugm-3 (BAM),6.71341,P,ugm-3
01-01-2024,23:00,11.691,P,ugm-3 (Ref.eq),1.61031,P,ugm-3,10.75098,P,ugm-3,13.22008,P,ugm-3,52.78627,P,ugm-3,10.000,P,ugm-3 (BAM),9.05386,P,ugm-3
01-01-2024,24:00,6.860,P,ugm-3 (Ref.eq),1.28167,P,ugm-3,9.58975,P,ugm-3,11.55496,P,ugm-3,49.59315,P,ugm-3,7.000,P,ugm-3 (BAM),8.93068,P,ugm-3
02-01-2024,01:00,7.826,P,ugm-3 (Ref.eq),0.87648,P,ugm-3,14.53597,P,ugm-3,15.87989,P,ugm-3,38.25092,P,ugm-3,6.000,P,ugm-3 (BAM),7.45045,P,ugm-3
02-01-2024,02:00,,,,0.26295,P,ugm-3,6.05644,P,ugm-3,6.45962,P,ugm-3,55.48046,P,ugm-3,8.000,P,ugm-3 (BAM),5.32175,P,ugm-3
02-01-2024,03:00,,,,0.17530,P,ugm-3,2.42272,P,ugm-3,2.69151,P,ugm-3,66.85595,P,ugm-3,6.000,P,ugm-3 (BAM),3.99131,P,ugm-3
02-01-2024,04:00,,,,0.13147,P,ugm-3,1.61518,P,ugm-3,1.81677,P,ugm-3,70.84735,P,ugm-3,8.000,P,ugm-3 (BAM),3.25445,P,ugm-3
02-01-2024,05:00,,,,0.23008,P,ugm-3,1.36306,P,ugm-3,1.71584,P,ugm-3,70.84735,P,ugm-3,10.000,P,ugm-3 (BAM),2.51760,P,ugm-3
02-01-2024,06:00,,,,0.26295,P,ugm-3,1.46406,P,ugm-3,1.86723,P,ugm-3,69.89939,P,ugm-3,8.000,P,ugm-3 (BAM),1.59652,P,ugm-3
02-01-2024,07:00,,,,0.88744,P,ugm-3,2.12142,P,ugm-3,3.48214,P,ugm-3,68.30283,P,ugm-3,7.000,P,ugm-3 (BAM),0.79826,P,ugm-3
02-01-2024,08:00,,,,0.32868,P,ugm-3,3.33143,P,ugm-3,3.83540,P,ugm-3,66.50670,P,ugm-3,5.000,P,ugm-3 (BAM),0.36843,P,ugm-3
02-01-2024,09:00,,,,0.49302,P,ugm-3,4.84575,P,ugm-3,5.60170,P,ugm-3,65.10971,P,ugm-3,8.000,P,ugm-3 (BAM),0.42983,P,ugm-3
02-01-2024,10:00,,,,0.46015,P,ugm-3,4.84568,P,ugm-3,5.55123,P,ugm-3,63.31358,P,ugm-3,7.000,P,ugm-3 (BAM),0.55264,P,ugm-3
02-01-2024,11:00,,,,1.64340,P,ugm-3,5.75654,P,ugm-3,8.27638,P,ugm-3,60.76907,P,ugm-3,5.000,P,ugm-3 (BAM),0.49124,P,ugm-3
02-01-2024,12:00,,,,0.69023,P,ugm-3,6.05734,P,ugm-3,7.11567,P,ugm-3,57.77552,P,ugm-3,4.000,P,ugm-3 (BAM),0.42983,P,ugm-3
02-01-2024,13:00,,,,0.75597,P,ugm-3,7.82378,P,ugm-3,8.98291,P,ugm-3,52.33723,P,ugm-3,6.000,P,ugm-3 (BAM),0.30703,P,ugm-3
02-01-2024,14:00,,,,1.15038,P,ugm-3,7.72367,P,ugm-3,9.48756,P,ugm-3,54.28304,P,ugm-3,6.000,P,ugm-3 (BAM),0.55264,P,ugm-3
02-01-2024,15:00,,,,1.05178,P,ugm-3,8.27859,P,ugm-3,9.89129,P,ugm-3,55.03143,P,ugm-3,7.000,P,ugm-3 (BAM),1.47372,P,ugm-3
02-01-2024,16:00,,,,0.82170,P,ugm-3,7.26879,P,ugm-3,8.52871,P,ugm-3,57.22670,P,ugm-3,5.000,P,ugm-3 (BAM),1.78074,P,ugm-3
02-01-2024,17:00,,,,0.65736,P,ugm-3,7.36938,P,ugm-3,8.37732,P,ugm-3,59.12261,P,ugm-3,7.000,P,ugm-3 (BAM),1.78074,P,ugm-3
02-01-2024,18:00,,,,0.72310,P,ugm-3,12.31516,P,ugm-3,13.42389,P,ugm-3,51.83831,P,ugm-3,11.000,P,ugm-3 (BAM),3.56148,P,ugm-3
02-01-2024,19:00,,,,0.92031,P,ugm-3,12.97163,P,ugm-3,14.38274,P,ugm-3,51.73852,P,ugm-3,10.000,P,ugm-3 (BAM),6.87733,P,ugm-3
02-01-2024,20:00,,,,0.95317,P,ugm-3,14.23334,P,ugm-3,15.69485,P,ugm-3,47.94669,P,ugm-3,16.000,P,ugm-3 (BAM),10.00898,P,ugm-3
02-01-2024,21:00,,,,0.75597,P,ugm-3,11.81057,P,ugm-3,12.96970,P,ugm-3,48.29594,P,ugm-3,8.000,P,ugm-3 (BAM),9.82476,P,ugm-3
02-01-2024,22:00,,,,0.62449,P,ugm-3,9.84213,P,ugm-3,10.79967,P,ugm-3,48.69508,P,ugm-3,9.000,P,ugm-3 (BAM),8.90369,P,ugm-3
02-01-2024,23:00,,,,0.42729,P,ugm-3,7.97448,P,ugm-3,8.62965,P,ugm-3,49.09422,P,ugm-3,8.000,P,ugm-3 (BAM),7.12295,P,ugm-3
02-01-2024,24:00,,,,0.42729,P,ugm-3,6.91470,P,ugm-3,7.56986,P,ugm-3,46.84906,P,ugm-3,8.000,P,ugm-3 (BAM),5.58783,P,ugm-3
03-01-2024,01:00,,,,0.39447,P,ugm-3,4.50977,P,ugm-3,5.11462,P,ugm-3,52.75300,P,ugm-3,8.000,P,ugm-3 (BAM),6.36674,P,ugm-3
03-01-2024,02:00,,,,0.30681,P,ugm-3,3.56742,P,ugm-3,4.03786,P,ugm-3,51.68863,P,ugm-3,5.000,P,ugm-3 (BAM),4.65262,P,ugm-3
03-01-2024,03:00,,,,0.32873,P,ugm-3,2.12057,P,ugm-3,2.62461,P,ugm-3,54.28304,P,ugm-3,3.000,P,ugm-3 (BAM),3.97921,P,ugm-3
03-01-2024,04:00,,,,0.26298,P,ugm-3,1.56522,P,ugm-3,1.96845,P,ugm-3,55.13121,P,ugm-3,4.000,P,ugm-3 (BAM),3.18337,P,ugm-3
03-01-2024,05:00,,,,0.19724,P,ugm-3,1.86792,P,ugm-3,2.17035,P,ugm-3,52.38713,P,ugm-3,4.000,P,ugm-3 (BAM),1.16315,P,ugm-3
03-01-2024,06:00,,,,0.19724,P,ugm-3,3.23070,P,ugm-3,3.53312,P,ugm-3,48.04648,P,ugm-3,6.000,P,ugm-3 (BAM),1.46925,P,ugm-3
03-01-2024,07:00,,,,0.62458,P,ugm-3,4.08964,P,ugm-3,5.04732,P,ugm-3,45.45207,P,ugm-3,4.000,P,ugm-3 (BAM),1.65290,P,ugm-3
03-01-2024,08:00,,,,0.42735,P,ugm-3,6.51194,P,ugm-3,7.16719,P,ugm-3,41.76002,P,ugm-3,3.000,P,ugm-3 (BAM),1.34681,P,ugm-3
03-01-2024,09:00,,,,1.01905,P,ugm-3,14.43747,P,ugm-3,16.00000,P,ugm-3,35.57335,P,ugm-3,5.000,P,ugm-3 (BAM),1.22437,P,ugm-3
03-01-2024,10:00,,,,1.15054,P,ugm-3,14.84154,P,ugm-3,16.60568,P,ugm-3,32.43013,P,ugm-3,7.000,P,ugm-3 (BAM),0.91828,P,ugm-3
03-01-2024,11:00,,,,1.13958,P,ugm-3,10.56812,P,ugm-3,12.31546,P,ugm-3,28.08948,P,ugm-3,,,,,,
03-01-2024,12:00,2.995,P,ugm-3 (Ref.eq),1.18342,P,ugm-3,9.08766,P,ugm-3,10.90221,P,ugm-3,35.62325,P,ugm-3,5.000,P,ugm-3 (BAM),4.04043,P,ugm-3
03-01-2024,13:00,4.928,P,ugm-3 (Ref.eq),1.05192,P,ugm-3,8.68360,P,ugm-3,10.29653,P,ugm-3,40.76217,P,ugm-3,6.000,P,ugm-3 (BAM),4.59140,P,ugm-3
03-01-2024,14:00,5.894,P,ugm-3 (Ref.eq),1.47927,P,ugm-3,13.22709,P,ugm-3,15.49527,P,ugm-3,41.31099,P,ugm-3,6.000,P,ugm-3 (BAM),4.83627,P,ugm-3
03-01-2024,15:00,6.860,P,ugm-3 (Ref.eq),1.01905,P,ugm-3,10.90435,P,ugm-3,12.46688,P,ugm-3,47.44777,P,ugm-3,5.000,P,ugm-3 (BAM),5.32602,P,ugm-3
03-01-2024,16:00,18.454,P,ugm-3 (Ref.eq),1.34778,P,ugm-3,16.70946,P,ugm-3,18.77602,P,ugm-3,42.10927,P,ugm-3,7.000,P,ugm-3 (BAM),6.36674,P,ugm-3
03-01-2024,17:00,15.556,P,ugm-3 (Ref.eq),1.11767,P,ugm-3,17.26418,P,ugm-3,18.97792,P,ugm-3,39.36518,P,ugm-3,12.000,P,ugm-3 (BAM),7.71355,P,ugm-3
03-01-2024,18:00,16.522,P,ugm-3 (Ref.eq),1.28203,P,ugm-3,19.48535,P,ugm-3,21.45110,P,ugm-3,39.56475,P,ugm-3,14.000,P,ugm-3 (BAM),9.06036,P,ugm-3
03-01-2024,19:00,19.421,P,ugm-3 (Ref.eq),1.31491,P,ugm-3,18.37501,P,ugm-3,20.39117,P,ugm-3,41.31099,P,ugm-3,18.000,P,ugm-3 (BAM),13.65176,P,ugm-3
03-01-2024,20:00,13.623,P,ugm-3 (Ref.eq),0.72320,P,ugm-3,12.56934,P,ugm-3,13.67823,P,ugm-3,46.10067,P,ugm-3,10.000,P,ugm-3 (BAM),11.81520,P,ugm-3
03-01-2024,21:00,16.522,P,ugm-3 (Ref.eq),0.75607,P,ugm-3,12.01421,P,ugm-3,13.17350,P,ugm-3,45.10282,P,ugm-3,14.000,P,ugm-3 (BAM),13.77420,P,ugm-3
03-01-2024,22:00,14.590,P,ugm-3 (Ref.eq),0.69033,P,ugm-3,10.14656,P,ugm-3,11.20505,P,ugm-3,45.85121,P,ugm-3,12.000,P,ugm-3 (BAM),14.81492,P,ugm-3
03-01-2024,23:00,14.590,P,ugm-3 (Ref.eq),0.69033,P,ugm-3,9.13710,P,ugm-3,10.19558,P,ugm-3,44.45422,P,ugm-3,9.000,P,ugm-3 (BAM),15.30467,P,ugm-3
03-01-2024,24:00,11.691,P,ugm-3 (Ref.eq),0.46022,P,ugm-3,7.11769,P,ugm-3,7.82334,P,ugm-3,45.35228,P,ugm-3,9.000,P,ugm-3 (BAM),14.44760,P,ugm-3
04-01-2024,01:00,11.691,P,ugm-3 (Ref.eq),0.35095,P,ugm-3,6.40046,P,ugm-3,6.93858,P,ugm-3,42.97407,P,ugm-3,6.000,P,ugm-3 (BAM),7.70356,P,ugm-3
04-01-2024,02:00,14.590,P,ugm-3 (Ref.eq),0.43869,P,ugm-3,4.31235,P,ugm-3,4.98499,P,ugm-3,43.30669,P,ugm-3,6.000,P,ugm-3 (BAM),6.70955,P,ugm-3
04-01-2024,03:00,9.759,P,ugm-3 (Ref.eq),0.29611,P,ugm-3,3.13314,P,ugm-3,3.58718,P,ugm-3,46.64949,P,ugm-3,4.000,P,ugm-3 (BAM),4.90791,P,ugm-3
04-01-2024,04:00,4.928,P,ugm-3 (Ref.eq),0.16451,P,ugm-3,1.97080,P,ugm-3,2.22304,P,ugm-3,53.38498,P,ugm-3,4.000,P,ugm-3 (BAM),3.47903,P,ugm-3
04-01-2024,05:00,3.961,P,ugm-3 (Ref.eq),0.19741,P,ugm-3,1.97087,P,ugm-3,2.27356,P,ugm-3,52.48691,P,ugm-3,4.000,P,ugm-3 (BAM),2.48502,P,ugm-3
04-01-2024,06:00,3.961,P,ugm-3 (Ref.eq),0.19741,P,ugm-3,1.71825,P,ugm-3,2.02094,P,ugm-3,56.97724,P,ugm-3,3.000,P,ugm-3 (BAM),1.73951,P,ugm-3
04-01-2024,07:00,5.894,P,ugm-3 (Ref.eq),0.26321,P,ugm-3,2.62783,P,ugm-3,3.03142,P,ugm-3,56.92734,P,ugm-3,1.000,P,ugm-3 (BAM),1.18038,P,ugm-3
04-01-2024,08:00,4.928,P,ugm-3 (Ref.eq),0.46062,P,ugm-3,6.06388,P,ugm-3,6.77016,P,ugm-3,51.18971,P,ugm-3,1.000,P,ugm-3 (BAM),0.68338,P,ugm-3
04-01-2024,09:00,4.928,P,ugm-3 (Ref.eq),1.90829,P,ugm-3,12.78683,P,ugm-3,15.71284,P,ugm-3,44.10497,P,ugm-3,2.000,P,ugm-3 (BAM),0.86976,P,ugm-3
04-01-2024,10:00,4.928,P,ugm-3 (Ref.eq),0.85544,P,ugm-3,10.25825,P,ugm-3,11.56990,P,ugm-3,46.20046,P,ugm-3,3.000,P,ugm-3 (BAM),0.49700,P,ugm-3
04-01-2024,11:00,4.928,P,ugm-3 (Ref.eq),1.31607,P,ugm-3,10.66349,P,ugm-3,12.68142,P,ugm-3,45.95099,P,ugm-3,4.000,P,ugm-3 (BAM),0.12425,P,ugm-3
04-01-2024,12:00,5.894,P,ugm-3 (Ref.eq),1.64508,P,ugm-3,10.86633,P,ugm-3,13.38876,P,ugm-3,47.14841,P,ugm-3,7.000,P,ugm-3 (BAM),0.55913,P,ugm-3
04-01-2024,13:00,8.792,P,ugm-3 (Ref.eq),1.87539,P,ugm-3,9.45220,P,ugm-3,12.32776,P,ugm-3,46.54970,P,ugm-3,7.000,P,ugm-3 (BAM),0.43488,P,ugm-3
04-01-2024,14:00,12.657,P,ugm-3 (Ref.eq),1.41477,P,ugm-3,9.24905,P,ugm-3,11.41833,P,ugm-3,45.60175,P,ugm-3,7.000,P,ugm-3 (BAM),0.80763,P,ugm-3
04-01-2024,15:00,13.623,P,ugm-3 (Ref.eq),1.90829,P,ugm-3,11.77636,P,ugm-3,14.70237,P,ugm-3,41.01164,P,ugm-3,7.000,P,ugm-3 (BAM),1.05613,P,ugm-3
04-01-2024,16:00,11.691,P,ugm-3 (Ref.eq),1.61218,P,ugm-3,14.04924,P,ugm-3,16.52122,P,ugm-3,38.56690,P,ugm-3,10.000,P,ugm-3 (BAM),1.18038,P,ugm-3
04-01-2024,17:00,19.421,P,ugm-3 (Ref.eq),1.31607,P,ugm-3,15.16009,P,ugm-3,17.17802,P,ugm-3,36.47142,P,ugm-3,15.000,P,ugm-3 (BAM),2.73352,P,ugm-3
04-01-2024,18:00,18.454,P,ugm-3 (Ref.eq),1.84249,P,ugm-3,19.50632,P,ugm-3,22.33143,P,ugm-3,31.28260,P,ugm-3,15.000,P,ugm-3 (BAM),6.08830,P,ugm-3
04-01-2024,19:00,19.421,P,ugm-3 (Ref.eq),1.87539,P,ugm-3,18.69802,P,ugm-3,21.57358,P,ugm-3,29.63615,P,ugm-3,15.000,P,ugm-3 (BAM),10.18858,P,ugm-3
04-01-2024,20:00,25.218,P,ugm-3 (Ref.eq),1.61218,P,ugm-3,19.55632,P,ugm-3,22.02829,P,ugm-3,27.19141,P,ugm-3,20.000,P,ugm-3 (BAM),16.09049,P,ugm-3
04-01-2024,21:00,30.049,P,ugm-3 (Ref.eq),4.37591,P,ugm-3,30.12206,P,ugm-3,36.83170,P,ugm-3,14.36904,P,ugm-3,26.000,P,ugm-3 (BAM),18.38914,P,ugm-3
04-01-2024,22:00,21.353,P,ugm-3 (Ref.eq),1.87539,P,ugm-3,18.39487,P,ugm-3,21.27044,P,ugm-3,25.74453,P,ugm-3,18.000,P,ugm-3 (BAM),13.66760,P,ugm-3
04-01-2024,23:00,12.657,P,ugm-3 (Ref.eq),0.95415,P,ugm-3,12.27942,P,ugm-3,13.74242,P,ugm-3,31.98109,P,ugm-3,9.000,P,ugm-3 (BAM),11.55534,P,ugm-3
04-01-2024,24:00,9.759,P,ugm-3 (Ref.eq),0.55933,P,ugm-3,10.15652,P,ugm-3,11.01415,P,ugm-3,33.82712,P,ugm-3,8.000,P,ugm-3 (BAM),11.05833,P,ugm-3
05-01-2024,01:00,8.792,P,ugm-3 (Ref.eq),0.43908,P,ugm-3,7.28374,P,ugm-3,7.95698,P,ugm-3,39.18224,P,ugm-3,6.000,P,ugm-3 (BAM),10.00112,P,ugm-3
05-01-2024,02:00,6.860,P,ugm-3 (Ref.eq),0.43908,P,ugm-3,2.96809,P,ugm-3,3.64133,P,ugm-3,49.95902,P,ugm-3,5.000,P,ugm-3 (BAM),6.55536,P,ugm-3
05-01-2024,03:00,7.826,P,ugm-3 (Ref.eq),0.32931,P,ugm-3,3.18698,P,ugm-3,3.69190,P,ugm-3,48.94454,P,ugm-3,3.000,P,ugm-3 (BAM),5.42078,P,ugm-3
05-01-2024,04:00,6.860,P,ugm-3 (Ref.eq),0.23051,P,ugm-3,0.75918,P,ugm-3,1.11263,P,ugm-3,55.58025,P,ugm-3,1.000,P,ugm-3 (BAM),3.15161,P,ugm-3
05-01-2024,05:00,3.961,P,ugm-3 (Ref.eq),0.13172,P,ugm-3,0.91066,P,ugm-3,1.11263,P,ugm-3,55.77982,P,ugm-3,0.000,P,ugm-3 (BAM),2.58432,P,ugm-3
05-01-2024,06:00,5.894,P,ugm-3 (Ref.eq),0.29638,P,ugm-3,0.96164,P,ugm-3,1.41607,P,ugm-3,59.22240,P,ugm-3,1.000,P,ugm-3 (BAM),1.76490,P,ugm-3
05-01-2024,07:00,8.792,P,ugm-3 (Ref.eq),0.39517,P,ugm-3,2.32738,P,ugm-3,2.93329,P,ugm-3,56.02928,P,ugm-3,1.000,P,ugm-3 (BAM),1.19761,P,ugm-3
05-01-2024,08:00,11.691,P,ugm-3 (Ref.eq),1.71239,P,ugm-3,9.91673,P,ugm-3,12.54236,P,ugm-3,48.94454,P,ugm-3,5.000,P,ugm-3 (BAM),1.07155,P,ugm-3
05-01-2024,09:00,10.725,P,ugm-3 (Ref.eq),5.49941,P,ugm-3,32.93724,P,ugm-3,41.36954,P,ugm-3,28.63830,P,ugm-3,4.000,P,ugm-3 (BAM),1.57581,P,ugm-3
05-01-2024,10:00,19.421,P,ugm-3 (Ref.eq),20.87799,P,ugm-3,56.39091,P,ugm-3,88.40338,P,ugm-3,8.33205,P,ugm-3,7.000,P,ugm-3 (BAM),2.89948,P,ugm-3
05-01-2024,11:00,12.657,P,ugm-3 (Ref.eq),3.58943,P,ugm-3,10.93284,P,ugm-3,16.43656,P,ugm-3,51.58885,P,ugm-3,6.000,P,ugm-3 (BAM),2.89948,P,ugm-3
05-01-2024,12:00,10.725,P,ugm-3 (Ref.eq),1.18550,P,ugm-3,6.47640,P,ugm-3,8.29414,P,ugm-3,58.47401,P,ugm-3,4.000,P,ugm-3 (BAM),1.38671,P,ugm-3
05-01-2024,13:00,14.590,P,ugm-3 (Ref.eq),1.35015,P,ugm-3,7.28599,P,ugm-3,9.35619,P,ugm-3,59.27229,P,ugm-3,5.000,P,ugm-3 (BAM),1.95400,P,ugm-3
05-01-2024,14:00,9.759,P,ugm-3 (Ref.eq),1.05378,P,ugm-3,6.02091,P,ugm-3,7.63668,P,ugm-3,57.67573,P,ugm-3,7.000,P,ugm-3 (BAM),1.07155,P,ugm-3
05-01-2024,15:00,11.691,P,ugm-3 (Ref.eq),0.98792,P,ugm-3,5.66672,P,ugm-3,7.18151,P,ugm-3,58.52390,P,ugm-3,5.000,P,ugm-3 (BAM),0.69336,P,ugm-3
05-01-2024,16:00,10.725,P,ugm-3 (Ref.eq),1.38309,P,ugm-3,10.06764,P,ugm-3,12.18834,P,ugm-3,53.43487,P,ugm-3,3.000,P,ugm-3 (BAM),0.69336,P,ugm-3
05-01-2024,17:00,12.657,P,ugm-3 (Ref.eq),0.62568,P,ugm-3,5.05894,P,ugm-3,6.01831,P,ugm-3,66.05767,P,ugm-3,3.000,P,ugm-3 (BAM),0.37819,P,ugm-3
05-01-2024,18:00,12.657,P,ugm-3 (Ref.eq),0.82326,P,ugm-3,8.44789,P,ugm-3,9.71021,P,ugm-3,59.42197,P,ugm-3,6.000,P,ugm-3 (BAM),0.25213,P,ugm-3
05-01-2024,19:00,31.981,P,ugm-3 (Ref.eq),5.13717,P,ugm-3,41.28106,P,ugm-3,49.15794,P,ugm-3,22.45163,P,ugm-3,27.000,P,ugm-3 (BAM),9.89607,P,ugm-3
05-01-2024,20:00,34.880,P,ugm-3 (Ref.eq),3.75409,P,ugm-3,34.29844,P,ugm-3,40.05462,P,ugm-3,27.54066,P,ugm-3,29.000,P,ugm-3 (BAM),27.35601,P,ugm-3
05-01-2024,21:00,24.252,P,ugm-3 (Ref.eq),2.27221,P,ugm-3,30.40058,P,ugm-3,33.88459,P,ugm-3,32.82927,P,ugm-3,21.000,P,ugm-3 (BAM),19.28787,P,ugm-3
05-01-2024,22:00,18.454,P,ugm-3 (Ref.eq),1.74532,P,ugm-3,23.57179,P,ugm-3,26.24791,P,ugm-3,38.01809,P,ugm-3,14.000,P,ugm-3 (BAM),24.77168,P,ugm-3
05-01-2024,23:00,29.083,P,ugm-3 (Ref.eq),0.98792,P,ugm-3,18.51252,P,ugm-3,20.02731,P,ugm-3,36.47142,P,ugm-3,23.000,P,ugm-3 (BAM),18.46846,P,ugm-3
05-01-2024,24:00,10.725,P,ugm-3 (Ref.eq),0.55982,P,ugm-3,12.74603,P,ugm-3,13.60441,P,ugm-3,47.69723,P,ugm-3,12.000,P,ugm-3 (BAM),17.64903,P,ugm-3
06-01-2024,01:00,11.691,P,ugm-3 (Ref.eq),0.52735,P,ugm-3,8.50630,P,ugm-3,9.31490,P,ugm-3,51.75515,P,ugm-3,10.000,P,ugm-3 (BAM),8.61046,P,ugm-3
06-01-2024,02:00,9.759,P,ugm-3 (Ref.eq),0.65919,P,ugm-3,7.89916,P,ugm-3,8.90990,P,ugm-3,51.08992,P,ugm-3,6.000,P,ugm-3 (BAM),8.86622,P,ugm-3
06-01-2024,03:00,6.860,P,ugm-3 (Ref.eq),0.56031,P,ugm-3,5.01330,P,ugm-3,5.87244,P,ugm-3,61.11831,P,ugm-3,4.000,P,ugm-3 (BAM),5.81846,P,ugm-3
06-01-2024,04:00,4.928,P,ugm-3 (Ref.eq),0.39552,P,ugm-3,4.40537,P,ugm-3,5.01182,P,ugm-3,55.97939,P,ugm-3,3.000,P,ugm-3 (BAM),3.90028,P,ugm-3
06-01-2024,05:00,10.725,P,ugm-3 (Ref.eq),0.32960,P,ugm-3,4.45582,P,ugm-3,4.96120,P,ugm-3,49.04433,P,ugm-3,3.000,P,ugm-3 (BAM),3.58059,P,ugm-3
06-01-2024,06:00,8.792,P,ugm-3 (Ref.eq),0.32960,P,ugm-3,4.30395,P,ugm-3,4.80932,P,ugm-3,50.94024,P,ugm-3,2.000,P,ugm-3 (BAM),2.36575,P,ugm-3
06-01-2024,07:00,5.894,P,ugm-3 (Ref.eq),0.65919,P,ugm-3,7.03854,P,ugm-3,8.04928,P,ugm-3,42.75787,P,ugm-3,4.000,P,ugm-3 (BAM),1.72636,P,ugm-3
06-01-2024,08:00,9.759,P,ugm-3 (Ref.eq),0.92287,P,ugm-3,12.05106,P,ugm-3,13.46610,P,ugm-3,38.21766,P,ugm-3,3.000,P,ugm-3 (BAM),1.02303,P,ugm-3
06-01-2024,09:00,10.725,P,ugm-3 (Ref.eq),0.79103,P,ugm-3,13.97444,P,ugm-3,15.18733,P,ugm-3,38.71658,P,ugm-3,3.000,P,ugm-3 (BAM),0.70333,P,ugm-3
06-01-2024,10:00,6.860,P,ugm-3 (Ref.eq),1.25246,P,ugm-3,11.19131,P,ugm-3,13.11173,P,ugm-3,42.55830,P,ugm-3,2.000,P,ugm-3 (BAM),0.19182,P,ugm-3
06-01-2024,11:00,10.725,P,ugm-3 (Ref.eq),6.06456,P,ugm-3,25.83450,P,ugm-3,35.13336,P,ugm-3,23.94840,P,ugm-3,10.000,P,ugm-3 (BAM),2.04605,P,ugm-3
06-01-2024,12:00,12.657,P,ugm-3 (Ref.eq),2.90044,P,ugm-3,14.23314,P,ugm-3,18.68042,P,ugm-3,39.71443,P,ugm-3,6.000,P,ugm-3 (BAM),3.19695,P,ugm-3
06-01-2024,13:00,12.657,P,ugm-3 (Ref.eq),3.46075,P,ugm-3,16.56334,P,ugm-3,21.86976,P,ugm-3,37.07013,P,ugm-3,4.000,P,ugm-3 (BAM),1.66242,P,ugm-3
06-01-2024,14:00,8.792,P,ugm-3 (Ref.eq),3.13116,P,ugm-3,15.65123,P,ugm-3,20.45227,P,ugm-3,36.87056,P,ugm-3,6.000,P,ugm-3 (BAM),1.47060,P,ugm-3
06-01-2024,15:00,19.421,P,ugm-3 (Ref.eq),3.13116,P,ugm-3,17.27121,P,ugm-3,22.07225,P,ugm-3,35.62325,P,ugm-3,8.000,P,ugm-3 (BAM),1.98211,P,ugm-3
06-01-2024,16:00,17.488,P,ugm-3 (Ref.eq),14.00781,P,ugm-3,36.23351,P,ugm-3,57.71185,P,ugm-3,17.01334,P,ugm-3,18.000,P,ugm-3 (BAM),4.60361,P,ugm-3
06-01-2024,17:00,36.812,P,ugm-3 (Ref.eq),11.20625,P,ugm-3,43.92102,P,ugm-3,61.10369,P,ugm-3,14.71829,P,ugm-3,27.000,P,ugm-3 (BAM),16.24052,P,ugm-3
06-01-2024,18:00,36.812,P,ugm-3 (Ref.eq),7.25110,P,ugm-3,40.67059,P,ugm-3,51.78879,P,ugm-3,23.99829,P,ugm-3,24.000,P,ugm-3 (BAM),28.32501,P,ugm-3
06-01-2024,19:00,25.218,P,ugm-3 (Ref.eq),5.86680,P,ugm-3,38.23696,P,ugm-3,47.23260,P,ugm-3,23.69894,P,ugm-3,19.000,P,ugm-3 (BAM),26.21502,P,ugm-3
06-01-2024,20:00,25.218,P,ugm-3 (Ref.eq),11.27217,P,ugm-3,42.14934,P,ugm-3,59.43308,P,ugm-3,16.01549,P,ugm-3,11.000,P,ugm-3 (BAM),13.49114,P,ugm-3
06-01-2024,21:00,68.697,P,ugm-3 (Ref.eq),21.12707,P,ugm-3,52.04716,P,ugm-3,84.44155,P,ugm-3,8.53162,P,ugm-3,73.000,P,ugm-3 (BAM),35.35831,P,ugm-3
06-01-2024,22:00,49.373,P,ugm-3 (Ref.eq),14.30444,P,ugm-3,39.62613,P,ugm-3,61.55931,P,ugm-3,10.37764,P,ugm-3,38.000,P,ugm-3 (BAM),30.05136,P,ugm-3
06-01-2024,23:00,37.778,P,ugm-3 (Ref.eq),4.97689,P,ugm-3,30.23595,P,ugm-3,37.86708,P,ugm-3,15.06754,P,ugm-3,36.000,P,ugm-3 (BAM),29.47591,P,ugm-3
06-01-2024,24:00,53.238,P,ugm-3 (Ref.eq),9.39347,P,ugm-3,36.52506,P,ugm-3,50.92818,P,ugm-3,6.23656,P,ugm-3,48.000,P,ugm-3 (BAM),35.03861,P,ugm-3
07-01-2024,01:00,33.914,P,ugm-3 (Ref.eq),1.53946,P,ugm-3,21.49048,P,ugm-3,23.85096,P,ugm-3,20.88833,P,ugm-3,26.000,P,ugm-3 (BAM),,,
07-01-2024,02:00,38.745,P,ugm-3 (Ref.eq),13.59127,P,ugm-3,32.53785,P,ugm-3,53.37751,P,ugm-3,5.52144,P,ugm-3,38.000,P,ugm-3 (BAM),24.12267,P,ugm-3
07-01-2024,03:00,26.184,P,ugm-3 (Ref.eq),3.36483,P,ugm-3,20.68484,P,ugm-3,25.84417,P,ugm-3,17.01334,P,ugm-3,24.000,P,ugm-3 (BAM),14.59032,P,ugm-3
07-01-2024,04:00,22.319,P,ugm-3 (Ref.eq),3.52977,P,ugm-3,24.43524,P,ugm-3,29.84749,P,ugm-3,8.78108,P,ugm-3,31.000,P,ugm-3 (BAM),9.66204,P,ugm-3
07-01-2024,05:00,29.083,P,ugm-3 (Ref.eq),2.87000,P,ugm-3,20.73412,P,ugm-3,25.13473,P,ugm-3,5.08904,P,ugm-3,29.000,P,ugm-3 (BAM),7.26274,P,ugm-3
07-01-2024,06:00,18.454,P,ugm-3 (Ref.eq),1.25356,P,ugm-3,14.14182,P,ugm-3,16.06393,P,ugm-3,17.86152,P,ugm-3,16.000,P,ugm-3 (BAM),2.01022,P,ugm-3
07-01-2024,07:00,25.218,P,ugm-3 (Ref.eq),2.93598,P,ugm-3,19.97418,P,ugm-3,24.47595,P,ugm-3,2.84387,P,ugm-3,23.000,P,ugm-3 (BAM),1.55630,P,ugm-3
07-01-2024,08:00,27.150,P,ugm-3 (Ref.eq),7.09253,P,ugm-3,21.25279,P,ugm-3,32.12785,P,ugm-3,1.79613,P,ugm-3,27.000,P,ugm-3 (BAM),2.07507,P,ugm-3
07-01-2024,09:00,21.353,P,ugm-3 (Ref.eq),4.81632,P,ugm-3,22.10783,P,ugm-3,29.49276,P,ugm-3,2.84387,P,ugm-3,16.000,P,ugm-3 (BAM),0.77815,P,ugm-3
07-01-2024,10:00,21.353,P,ugm-3 (Ref.eq),12.73357,P,ugm-3,24.10651,P,ugm-3,43.63104,P,ugm-3,3.44258,P,ugm-3,20.000,P,ugm-3 (BAM),3.17745,P,ugm-3
07-01-2024,11:00,25.218,P,ugm-3 (Ref.eq),19.10035,P,ugm-3,22.60425,P,ugm-3,51.89104,P,ugm-3,4.24086,P,ugm-3,27.000,P,ugm-3 (BAM),3.04776,P,ugm-3
07-01-2024,12:00,26.184,P,ugm-3 (Ref.eq),24.31254,P,ugm-3,22.51761,P,ugm-3,59.79632,P,ugm-3,4.29076,P,ugm-3,23.000,P,ugm-3 (BAM),4.27983,P,ugm-3
07-01-2024,13:00,32.947,P,ugm-3 (Ref.eq),24.44449,P,ugm-3,23.43014,P,ugm-3,60.91117,P,ugm-3,4.44043,P,ugm-3,27.000,P,ugm-3 (BAM),5.90097,P,ugm-3
07-01-2024,14:00,40.677,P,ugm-3 (Ref.eq),32.42771,P,ugm-3,28.67219,P,ugm-3,78.39399,P,ugm-3,5.38839,P,ugm-3,36.000,P,ugm-3 (BAM),15.69270,P,ugm-3
07-01-2024,15:00,45.508,P,ugm-3 (Ref.eq),30.61335,P,ugm-3,30.13664,P,ugm-3,77.07644,P,ugm-3,4.29076,P,ugm-3,42.000,P,ugm-3 (BAM),19.90768,P,ugm-3
07-01-2024,16:00,41.643,P,ugm-3 (Ref.eq),27.14955,P,ugm-3,30.68428,P,ugm-3,72.31301,P,ugm-3,3.44258,P,ugm-3,45.000,P,ugm-3 (BAM),23.27967,P,ugm-3
07-01-2024,17:00,62.900,P,ugm-3 (Ref.eq),89.95969,P,ugm-3,46.41883,P,ugm-3,184.35510,P,ugm-3,2.89377,P,ugm-3,68.000,P,ugm-3 (BAM),31.25571,P,ugm-3
07-01-2024,18:00,71.595,P,ugm-3 (Ref.eq),82.76819,P,ugm-3,56.33079,P,ugm-3,183.24025,P,ugm-3,3.09334,P,ugm-3,72.000,P,ugm-3 (BAM),30.28302,P,ugm-3
07-01-2024,19:00,73.528,P,ugm-3 (Ref.eq),53.34244,P,ugm-3,56.14634,P,ugm-3,137.93694,P,ugm-3,3.89162,P,ugm-3,72.000,P,ugm-3 (BAM),40.59352,P,ugm-3
07-01-2024,20:00,78.359,P,ugm-3 (Ref.eq),53.24347,P,ugm-3,50.21711,P,ugm-3,131.85595,P,ugm-3,3.69205,P,ugm-3,88.000,P,ugm-3 (BAM),57.45345,P,ugm-3
07-01-2024,21:00,59.035,P,ugm-3 (Ref.eq),66.60382,P,ugm-3,48.12649,P,ugm-3,150.25092,P,ugm-3,2.14538,P,ugm-3,56.000,P,ugm-3 (BAM),32.87686,P,ugm-3
07-01-2024,22:00,102.514,P,ugm-3 (Ref.eq),96.82130,P,ugm-3,48.61723,P,ugm-3,197.07448,P,ugm-3,4.54022,P,ugm-3,104.000,P,ugm-3 (BAM),58.23160,P,ugm-3
07-01-2024,23:00,61.933,P,ugm-3 (Ref.eq),26.88564,P,ugm-3,37.98071,P,ugm-3,79.20479,P,ugm-3,3.59226,P,ugm-3,59.000,P,ugm-3 (BAM),54.72992,P,ugm-3
07-01-2024,24:00,63.866,P,ugm-3 (Ref.eq),35.36369,P,ugm-3,30.40342,P,ugm-3,84.62700,P,ugm-3,2.39484,P,ugm-3,62.000,P,ugm-3 (BAM),46.04057,P,ugm-3
08-01-2024,01:00,53.238,P,ugm-3 (Ref.eq),29.31953,P,ugm-3,28.69710,P,ugm-3,73.65308,P,ugm-3,3.19312,P,ugm-3,48.000,P,ugm-3 (BAM),44.36114,P,ugm-3